Weather Roundup
Issued by NWS Springfield, MO

Home | Current Version | Previous Version | Text Only | Print | Product List | Glossary On
Versions: 1 2 3 4 5 6 7 8 9 10 11 12 13 14 15 16 17 18 19 20 21 22 23 24 25 26 27 28 29 30 31 32 33 34 35 36 37 38 39 40 41 42 43 44 45 46 47 48 49 50
000
NZUS99 KSGF 010307
HRRSGF

HOURLY WEATHER
NATIONAL WEATHER SERVICE SPRINGFIELD MO
1000 PM CDT FRI OCT 31 2014

......SGF CWA......

CITY           SKY/WX    TMP DP  RH WIND       PRES   REMARKS
SPRINGFIELD    CLEAR     33  20  58 NW5       30.40R WCI  29
JOPLIN         CLEAR     35  22  58 NE5       30.44R WCI  31
WEST PLAINS    CLEAR     35  19  52 N8        30.38R WCI  29
ROLLA          CLEAR     32  20  61 N5        30.38R WCI  27
OSAGE BEACH    CLEAR     34  18  51 N5        30.42R WCI  30
BRANSON        CLEAR     32  21  64 CALM      30.41R

......SURROUNDING SGF CWA......

CITY           SKY/WX    TMP DP  RH WIND       PRES   REMARKS
CHANUTE        CLEAR     35  21  56 NE5       30.44S WCI  31
PARSONS        CLEAR     30  23  75 NE3       30.45S
COFFEYVILLE    CLEAR     36  22  56 NE7       30.44S WCI  30
EMPORIA        CLEAR     34  22  61 CALM      30.44S
GROVE OK       CLEAR     37  28  70 CALM      30.45R
ROGERS AR      CLEAR     34  22  61 NE6       30.41R WCI  29
SILOAM SPRINGS CLEAR     36  18  48 NE6       30.42S WCI  31
HARRISON AR    CLEAR     35  22  58 NW3       30.40R
NEAR YELLVILLE CLEAR     39  18  41 N6        30.41R WCI  35

......KANSAS AND MISSOURI......

CITY           SKY/WX    TMP DP  RH WIND       PRES   REMARKS
KANSAS CTY INT CLEAR     33  18  53 NE7       30.46R WCI  27
DOWNTOWN KC    CLEAR     37  19  48 CALM      30.46R
COLUMBIA       CLEAR     33  22  63 N7        30.43R WCI  27
SEDALIA        CLEAR     33  18  53 N7        30.45S WCI  27
ST JOSEPH      PTCLDY    28  20  71 N3        30.48R HAZE
ST LOUIS       CLEAR     39  22  50 N12       30.38S WCI  32
SPIRIT OF STL  CLEAR     38  22  52 N6        30.39R WCI  33
KIRKSVILLE     CLEAR     31  21  66 N6        30.45R WCI  25
WICHITA        CLEAR     37  15  40 E5        30.42S WCI  33
TOPEKA         CLEAR     33  23  66 CALM      30.47R
OLATHE         CLEAR     36  19  50 N5        30.44R WCI  32

......TENNESSEE......

CITY           SKY/WX    TMP DP  RH WIND       PRES   REMARKS
MEMPHIS        CLEAR     41  23  48 N8        30.32R
NASHVILLE      CLOUDY    42  26  53 NW16G29   30.14S

......ARKANSAS.......

CITY           SKY/WX    TMP DP  RH WIND       PRES   REMARKS
FAYETTEVILLE   CLEAR     37  21  52 N5        30.40R WCI  33
FT SMITH       CLEAR     44  25  47 N9        30.40R
LITTLE ROCK    CLEAR     44  23  43 N10       30.37R

......OKLAHOMA.......

CITY           SKY/WX    TMP DP  RH WIND       PRES   REMARKS
TULSA          CLEAR     38  25  59 N6        30.43R WCI  33
PONCA CITY     CLEAR     33  22  63 E5        30.43S WCI  29
MCALESTER      CLEAR     44  30  57 N6        30.41R
OKLAHOMA CITY  PTCLDY    45  21  38 NE9       30.40R

......IOWA............

CITY           SKY/WX    TMP DP  RH WIND       PRES   REMARKS
DES MOINES     CLEAR     35  18  49 NE5       30.47S WCI  31
QUAD CITIES    CLEAR     34  18  52 N6        30.43R WCI  29

......ILLINOIS........

CITY           SKY/WX    TMP DP  RH WIND       PRES   REMARKS
QUINCY         CLEAR     32  21  64 N9        30.41S WCI  24
CHICAGO        FLURRIES  36  21  54 N18       30.34R WCI  26




USA.gov is the U.S. government's official web portal to all federal, state and local government web resources and services.